Location: Sungai Kamana Besar
(2.6333°N, 113.4333°E)
Time: 06:03:27
(UTC+00:00)

ARIANE 5 R/B - Pass Details

Date: 29 May 2022
Orbit: 301 x 33147 km, 1.8° (Epoch: 28 June)

Event Time Altitude Azimuth Distance (km) Brightness Sun altitude
Exits shadow 20:42:07 35° 253° (WSW) 2,102 4.7 -22.4°
Maximum altitude 20:45:10 63° 186° (S) 981 3.3 -21.7°
Drops below altitude 10° 20:48:20 10° 103° (ESE) 1,688 5.5 -21.0°
Sets 20:49:35 0° 98° (E) 2,290 6.4 -20.7°
